カタログに戻る

STARLINK-35518

運用中通信VLEO
NORAD 66198·PAYLOAD·🇺🇸 United States

打ち上げ Oct 26, 2025 から Cape Canaveral Space Force Station

Loading…

次のパス (今後24時間)

TLE

最新Source: CelesTrak SupGP

元期: Sep 14, 2026, 23:02 UTC

1 66198C 25243X   26257.96020833  .00027041  00000+0  79903-3 0  2570
2 66198  53.1584  85.2873 0001078  91.2824 267.0319 15.34373189    16

AllMySatでSTARLINK-35518をリアルタイム追跡

Download on the App Store